| time (UTC) | temp F | wind direction | speed knots | gust knots | rain 1hr in | rain 24hr in | rain mn in | humidity % | barometer mb |
| 20260504081541 | 52 | 50 | 0.9 | 3.5 | 0.00 | 0.00 | 0.00 | 75 | 1014.1 |
| 20260504044544 | 54 | 65 | 3.5 | 6.1 | 0.00 | 0.00 | 0.00 | 68 | 1015.2 |
| 20260504043048 | 52 | 41 | 0.9 | 2.6 | 0.00 | 0.00 | 0.00 | 73 | 1015.3 |
| 20260504041544 | 52 | 18 | 0.0 | 0.9 | 0.00 | 0.00 | 0.00 | 74 | 1015.6 |
| 20260504040046 | 51 | 0 | 0.0 | 2.6 | 0.00 | 0.00 | 0.00 | 77 | 1015.7 |
| 20260504034547 | 52 | 0 | 0.0 | 0.9 | 0.00 | 0.00 | 0.00 | 77 | 1015.8 |
| 20260504033046 | 52 | 0 | 0.0 | 0.9 | 0.00 | 0.00 | 0.00 | 75 | 1016.0 |
| 20260504031544 | 53 | 0 | 0.0 | 0.0 | 0.00 | 0.00 | 0.00 | 73 | 1016.0 |
| 20260504030040 | 53 | 0 | 0.0 | 0.9 | 0.00 | 0.00 | 0.00 | 73 | 1016.0 |
| 20260504024547 | 54 | 0 | 0.0 | 0.9 | 0.00 | 0.00 | 0.00 | 71 | 1015.9 |
| 20260504023046 | 55 | 0 | 0.0 | 0.9 | 0.00 | 0.00 | 0.00 | 67 | 1015.9 |
| 20260504021542 | 56 | 0 | 0.0 | 3.5 | 0.00 | 0.00 | 0.00 | 66 | 1015.5 |
| 20260504020043 | 56 | 18 | 1.7 | 3.5 | 0.00 | 0.00 | 0.00 | 65 | 1015.4 |
| 20260504014542 | 55 | 45 | 0.0 | 0.9 | 0.00 | 0.00 | 0.00 | 68 | 1015.5 |
| 20260504013102 | 57 | 0 | 0.0 | 0.9 | 0.00 | 0.00 | 0.00 | 67 | 1015.5 |
| 20260504011546 | 58 | 0 | 0.0 | 0.9 | 0.00 | 0.00 | 0.00 | 63 | 1015.4 |
| 20260504010045 | 59 | 0 | 0.0 | 0.9 | 0.00 | 0.00 | 0.00 | 61 | 1015.6 |
| 20260504004541 | 62 | 44 | 0.0 | 0.9 | 0.00 | 0.00 | 0.00 | 56 | 1015.6 |
| 20260504003041 | 63 | 44 | 0.9 | 3.5 | 0.00 | 0.00 | 0.00 | 49 | 1015.7 |
| 20260504001543 | 64 | 44 | 0.9 | 3.5 | 0.00 | 0.00 | 0.00 | 47 | 1015.8 |
| 20260504000046 | 65 | 37 | 0.9 | 4.3 | 0.00 | 0.00 | 0.00 | 45 | 1015.7 |
| 20260503234543 | 65 | 25 | 1.7 | 7.8 | 0.00 | 0.00 | 0.00 | 43 | 1015.9 |
| 20260503233039 | 66 | 55 | 3.5 | 8.7 | 0.00 | 0.00 | 0.00 | 41 | 1016.0 |
| 20260503231541 | 67 | 49 | 2.6 | 6.1 | 0.00 | 0.00 | 0.00 | 40 | 1016.4 |
| 20260503230049 | 68 | 57 | 2.6 | 8.7 | 0.00 | 0.00 | 0.00 | 40 | 1016.3 |
| 20260503224550 | 68 | 100 | 1.7 | 7.0 | 0.00 | 0.00 | 0.00 | 40 | 1016.6 |
| 20260503223042 | 68 | 35 | 2.6 | 7.0 | 0.00 | 0.00 | 0.00 | 39 | 1016.5 |
| 20260503221551 | 68 | 348 | 2.6 | 11.3 | 0.00 | 0.00 | 0.00 | 39 | 1016.7 |
| 20260503220047 | 68 | 26 | 3.5 | 7.0 | 0.00 | 0.00 | 0.00 | 38 | 1016.9 |
| 20260503214545 | 67 | 58 | 3.5 | 10.4 | 0.00 | 0.02 | 0.00 | 40 | 1017.2 |
| 20260503213045 | 68 | 37 | 3.5 | 9.6 | 0.00 | 0.02 | 0.00 | 40 | 1017.4 |
| 20260503211541 | 67 | 360 | 5.2 | 10.4 | 0.00 | 0.02 | 0.00 | 39 | 1017.7 |
| 20260503210047 | 67 | 83 | 2.6 | 13.0 | 0.00 | 0.02 | 0.00 | 38 | 1018.1 |
| 20260503204553 | 68 | 46 | 4.3 | 10.4 | 0.00 | 0.04 | 0.00 | 37 | 1018.2 |
| 20260503203049 | 68 | 56 | 3.5 | 8.7 | 0.00 | 0.04 | 0.00 | 39 | 1018.3 |
| 20260503201541 | 67 | 26 | 6.1 | 9.6 | 0.00 | 0.04 | 0.00 | 40 | 1018.7 |
| 20260503200040 | 67 | 78 | 4.3 | 10.4 | 0.00 | 0.04 | 0.00 | 40 | 1019.1 |
| 20260503194548 | 67 | 75 | 2.6 | 9.6 | 0.00 | 0.04 | 0.00 | 38 | 1019.2 |
| 20260503193049 | 66 | 65 | 3.5 | 11.3 | 0.00 | 0.04 | 0.00 | 37 | 1019.6 |
| 20260503191608 | 66 | 23 | 2.6 | 8.7 | 0.00 | 0.04 | 0.00 | 40 | 1019.8 |
| 20260503190041 | 65 | 330 | 3.5 | 11.3 | 0.00 | 0.04 | 0.00 | 39 | 1020.0 |
| 20260503184541 | 66 | 352 | 0.9 | 7.8 | 0.00 | 0.04 | 0.00 | 38 | 1020.1 |
| 20260503183042 | 65 | 46 | 2.6 | 10.4 | 0.00 | 0.04 | 0.00 | 39 | 1020.4 |
| 20260503181549 | 64 | 27 | 4.3 | 8.7 | 0.00 | 0.04 | 0.00 | 40 | 1020.6 |
| 20260503180043 | 65 | 7 | 2.6 | 7.8 | 0.00 | 0.04 | 0.00 | 40 | 1020.7 |
| 20260503174552 | 65 | 49 | 1.7 | 3.5 | 0.00 | 0.04 | 0.00 | 38 | 1020.9 |
| 20260503173046 | 62 | 49 | 0.9 | 6.1 | 0.00 | 0.04 | 0.00 | 43 | 1021.2 |
| 20260503171541 | 63 | 46 | 2.6 | 6.1 | 0.00 | 0.04 | 0.00 | 41 | 1021.3 |